�ϑ��N����,2020/9/28,,,,
�ϑ���,��������q,,,,
�ϑ��n�_,16,,,,
���x�v�ԍ�,A009,,,,
,,,,,
����,�C��,����,����,���l,
9:30:00,25.7,0,-999,�ЂȂ�,
9:31:00,24.5,0,-999,�ЂȂ�,
9:32:00,24.3,3,-999,�ЂȂ�,
9:33:00,24.2,3,-999,�ЂȂ�,
9:34:00,24.9,-999,-999,�ЂȂ�,
9:35:00,23.9,-999,-999,�ЂȂ�,
9:36:00,23.3,-999,-999,�ЂȂ�,
9:37:00,23.3,-999,-999,�ЂȂ�,
9:38:00,23,-999,-999,�ЂȂ�,
9:39:00,23,-999,-999,�ЂȂ�,
9:40:00,23.1,-999,-999,�ЂȂ�,
9:41:00,23.8,-999,-999,�ЂȂ�,
9:42:00,24,-999,-999,�ЂȂ�,
9:43:00,23.8,-999,-999,�ЂȂ�,
9:44:00,-999,-999,-999,�ЂȂ�,���x���Y��
9:45:00,23.7,-999,-999,�ЂȂ�,
9:46:00,23.2,-999,-999,���A,
9:47:00,22.9,-999,-999,�ЂȂ�,
9:48:00,22.9,5,-999,�ЂȂ�,
9:49:00,22.9,5,-999,�ЂȂ�,
9:50:00,23.2,3,-999,�ЂȂ�,
9:51:00,23.1,5,-999,�ЂȂ�,
9:52:00,23.3,6,-999,�ЂȂ�,
9:53:00,23,3,-999,�ЂȂ�,
9:54:00,23.4,0,-999,�ЂȂ�,
9:55:00,23.1,0,-999,�ЂȂ�,
9:56:00,23.1,3,-999,�ЂȂ�,
9:57:00,26.8,0,-999,�ꏊ�ړ�,
9:58:00,26,8,-999,�ЂȂ�,
9:59:00,25,0,-999,�ЂȂ�,
10:00:00,25.5,0,-999,�ЂȂ�,
10:01:00,25.8,4,-999,�ЂȂ�,
10:02:00,26.1,3,-999,�ЂȂ�,
10:03:00,24.9,8,-999,�ЂȂ�,
10:04:00,25.8,0,-999,�ЂȂ�,
10:05:00,25.9,0,-999,�ЂȂ�,
10:06:00,25,0,-999,�ЂȂ�,
10:07:00,24.9,2,-999,�ЂȂ�,
10:08:00,25.8,0,-999,�ЂȂ�,
10:09:00,26.2,0,-999,�ЂȂ�,
10:10:00,26,0,-999,�ЂȂ�,
10:11:00,26.5,0,-999,�ЂȂ�,
10:12:00,26.2,0,-999,�ЂȂ�,
10:13:00,26,0,-999,�ЂȂ�,
10:14:00,26,0,-999,�ЂȂ�,
10:15:00,26.3,8,-999,�ЂȂ�,
10:16:00,25.7,0,-999,�ЂȂ�,
10:17:00,26,0,-999,�ЂȂ�,
10:18:00,26.8,0,-999,�ЂȂ�,
10:19:00,26,0,-999,�ЂȂ�,
10:20:00,26,0,-999,�ЂȂ�,
10:21:00,25.8,3,-999,���A,
10:22:00,-999,-999,-999,���A,���x���Y��
10:23:00,24,0,-999,�ЂȂ�,
10:24:00,24.2,0,-999,�ЂȂ�,
10:25:00,25.3,0,-999,�ЂȂ�,
10:26:00,25.3,3,-999,�ЂȂ�,
10:27:00,26.3,0,-999,�ЂȂ�,
10:28:00,25.2,3,-999,�ЂȂ�,
10:29:00,25.2,3,-999,�ЂȂ�,
10:30:00,26.2,1,-999,�ЂȂ�,
10:31:00,25.2,3,-999,�ЂȂ�,
10:32:00,25,3,-999,�ЂȂ�,
10:33:00,24.9,0,-999,�ЂȂ�,
10:34:00,25.3,-999,-999,�ЂȂ�,
10:35:00,25.5,0,-999,�ЂȂ�,
10:36:00,25.2,-999,-999,�ЂȂ�,
10:37:00,25.3,0,-999,�ЂȂ�,
10:38:00,26.2,-999,-999,�ЂȂ�,
10:39:00,26.8,-999,-999,�ЂȂ�,
10:40:00,26.2,-999,-999,�ЂȂ�,
10:41:00,25,-999,-999,���A,
10:42:00,25,-999,-999,���A,
10:43:00,24,-999,-999,���A,
10:44:00,24.1,-999,-999,���A,
10:45:00,24.1,-999,-999,���A,
10:46:00,24,0,-999,���A,
10:47:00,24.1,0,-999,���A,
10:48:00,23.5,1,-999,���A,
10:49:00,23.1,0,-999,���A,
10:50:00,23.1,0,-999,���A,
10:51:00,23.3,0,-999,���A,
10:52:00,23.5,3,-999,�ЂȂ�,
10:53:00,23.9,0,-999,�ЂȂ�,
10:54:00,23.8,0,-999,�ЂȂ�,
10:55:00,23.9,0,-999,�ЂȂ�,
10:56:00,24,0,-999,�ЂȂ�,
10:57:00,23.7,0,-999,�ЂȂ�,
10:58:00,23.9,0,-999,�ЂȂ�,
10:59:00,24.1,3,-999,�ЂȂ�,
11:00:00,24,0,-999,�ЂȂ�,
11:01:00,24.2,0,-999,�ЂȂ�,
11:02:00,24.3,0,-999,�ЂȂ�,
11:03:00,24.5,0,-999,�ЂȂ�,
11:04:00,24.3,0,-999,�ЂȂ�,
11:05:00,24.2,0,-999,�ЂȂ�,
11:06:00,24.3,0,-999,�ЂȂ�,
11:07:00,24.9,0,-999,�ЂȂ�,
11:08:00,25,0,-999,�ЂȂ�,
11:09:00,25,0,-999,�ЂȂ�,
11:10:00,24.5,0,-999,�ЂȂ�,
11:11:00,24.2,0,-999,�ЂȂ�,
11:12:00,24.5,0,-999,�ЂȂ�,
11:13:00,25,0,-999,�ЂȂ�,
11:14:00,25,0,-999,�ЂȂ�,
11:15:00,24.9,0,-999,�ЂȂ�,
11:16:00,24.8,2,-999,�ЂȂ�,
11:17:00,24,0,-999,�ЂȂ�,
11:18:00,24.1,0,-999,�ЂȂ�,
11:19:00,24,0,-999,�ЂȂ�,
11:20:00,24,3,-999,�ЂȂ�,
11:21:00,24.5,3,-999,�ЂȂ�,
11:22:00,24.3,0,-999,�ЂȂ�,
11:23:00,24.8,0,-999,�ЂȂ�,
11:24:00,25,0,-999,�ЂȂ�,
11:25:00,25.1,7,-999,�ЂȂ�,
11:26:00,24.8,7,-999,�ЂȂ�,
11:27:00,25,0,-999,�ЂȂ�,
11:28:00,25,0,-999,�ЂȂ�,
11:29:00,25,0,-999,�ЂȂ�,
11:30:00,25.2,0,-999,�ЂȂ�,
